Location: Bégole
(43.1574°N, 0.3291°E)
Time: 00:47:41
(UTC+00:00)

deb Delta 89 - Pass Details

Date: 22 February 2024
Orbit: 714 x 2021 km, 97.5° (Epoch: 13 April)

Event Time Altitude Azimuth Distance (km) Brightness Sun altitude
Rises 01:46:31 0° 14° (NNE) 5,436 ? -51.4°
Reaches altitude 10° 01:49:57 10° 19° (NNE) 4,473 ? -51.0°
Enters shadow 01:59:35 50° 72° (ENE) 2,413 ? -49.8°
